Ithaca, NY

8:57 AM EST on February 21, 2018 (GMT -0500)
Tompkins County

Weather History for KITH - August, 2014

Change the Weather History Date:

Friday, August 15, 2014

  Actual Average Record
Temperature  
Mean Temperature 60 °F -  
Max Temperature 66 °F 79 °F 95 °F (1938)
Min Temperature 54 °F 56 °F 42 °F (1964)
Degree Days  
Heating Degree Days 5    
Growing Degree Days 10 (Base 50)    
Moisture  
Dew Point 49 °F    
Average Humidity 67    
Maximum Humidity 80    
Minimum Humidity 50    
Precipitation  
Precipitation 0.00 in - - ()
Sea Level Pressure  
Sea Level Pressure 29.94 in    
Wind  
Wind Speed 6 mph (West)    
Max Wind Speed 12 mph    
Max Gust Speed -    
Visibility 10 miles    
Events      
Averages and records for this station are not official NWS values.
T = Trace of Precipitation, MM = Missing Value Source: NWS Daily Summary

Daily Weather History Graph

Daily Weather History Graph

Search for Another Location

Airport or City:

Trip Planner

Search our weather history database for the weather conditions in past years. The results will help you decide how hot, cold, wet, or windy it might be!

Date:

Astronomy

Aug. 15, 2014 Rise Set
Actual Time 6:12 AM EDT 8:07 PM EDT
Civil Twilight 5:42 AM EDT 8:37 PM EDT
Nautical Twilight 5:05 AM EDT 9:14 PM EDT
Astronomical Twilight 4:24 AM EDT 9:54 PM EDT
Moon 10:59 PM EDT (8/15) 12:01 PM EDT (8/15)
Length of Visible Light 14h 55m
Length of Day
13h 54m
Waning Gibbous, 69% of the Moon is Illuminated
Aug 15
Waning Gibbous
Aug 17
Last Quarter
Aug 25
New
Sep 2
First Quarter
Sep 8
Full

Hourly Weather History & Observations

Time (EDT) Temp. Dew Point Humidity Pressure Visibility Wind Dir Wind Speed Gust Speed Precip Events Conditions
12:56 AM 55.9 °F 50.0 °F 80% 29.93 in 10.0 mi Calm Calm - N/A   Overcast
1:56 AM 55.9 °F 50.0 °F 80% 29.92 in 10.0 mi Variable 6.9 mph - N/A   Overcast
2:56 AM 55.9 °F 48.9 °F 77% 29.91 in 10.0 mi WSW 4.6 mph - N/A   Overcast
3:56 AM 55.9 °F 46.9 °F 72% 29.90 in 10.0 mi WSW 6.9 mph - N/A   Overcast
4:28 AM 55.4 °F 46.4 °F 72% 29.91 in 10.0 mi West 6.9 mph - N/A   Overcast
4:56 AM 55.9 °F 46.9 °F 72% 29.91 in 10.0 mi West 5.8 mph - N/A   Overcast
5:56 AM 54.9 °F 46.9 °F 75% 29.91 in 10.0 mi West 8.1 mph - N/A   Overcast
6:27 AM 55.4 °F 46.4 °F 72% 29.93 in 10.0 mi West 10.4 mph - N/A   Overcast
6:56 AM 54.9 °F 46.9 °F 75% 29.94 in 10.0 mi West 8.1 mph - N/A   Overcast
7:56 AM 54.9 °F 46.9 °F 75% 29.95 in 10.0 mi West 8.1 mph - N/A   Overcast
8:56 AM 55.9 °F 47.8 °F 74% 29.96 in 10.0 mi West 9.2 mph - N/A   Overcast
9:56 AM 59.0 °F 48.9 °F 69% 29.97 in 10.0 mi WNW 10.4 mph - N/A   Overcast
10:56 AM 59.9 °F 48.9 °F 67% 29.97 in 10.0 mi NW 10.4 mph - N/A   Overcast
11:56 AM 61.9 °F 50.0 °F 65% 29.96 in 10.0 mi West 8.1 mph - N/A   Overcast
12:56 PM 63.9 °F 50.0 °F 61% 29.96 in 10.0 mi WNW 11.5 mph - N/A   Overcast
1:56 PM 65.8 °F 50.9 °F 58% 29.95 in 10.0 mi WNW 8.1 mph - N/A   Overcast
2:56 PM 63.0 °F 50.9 °F 65% 29.95 in 10.0 mi SW 8.1 mph - N/A   Overcast
3:56 PM 64.9 °F 52.0 °F 63% 29.95 in 10.0 mi WSW 3.5 mph - N/A   Mostly Cloudy
4:56 PM 65.8 °F 48.9 °F 54% 29.94 in 10.0 mi NW 8.1 mph - N/A   Mostly Cloudy
5:56 PM 66.9 °F 47.8 °F 50% 29.95 in 10.0 mi West 6.9 mph - N/A   Mostly Cloudy
6:56 PM 64.9 °F 48.9 °F 56% 29.94 in 10.0 mi West 5.8 mph - N/A   Mostly Cloudy
7:56 PM 63.9 °F 50.0 °F 61% 29.95 in 10.0 mi West 5.8 mph - N/A   Overcast
7:57 PM 64.4 °F 50.0 °F 59% 29.95 in 10.0 mi West 4.6 mph - N/A   Overcast
8:56 PM 61.9 °F 50.0 °F 65% 29.96 in 10.0 mi WSW 5.8 mph - N/A   Mostly Cloudy
10:56 PM 61.0 °F 48.9 °F 64% 29.99 in 10.0 mi West 5.8 mph - N/A   Overcast